EW1052 Weather Reports


time (UTC)temp
C
wind
direction
speed
KPH
gust
KPH
rain 1hr
cm
rain 24hr
cm
rain mn
cm
humidity
%
barometer
mb
20260508011605 -17 0.0 0.0 0.00 0.00 0.00 1013.9
20260508010051 12 359 1.6 3.2 0.00 0.00 0.00 76 1014.0
20260508004551 12 359 1.6 4.8 0.00 0.00 0.00 76 1014.2
20260508003047 12 343 0.0 4.8 0.00 0.00 0.00 76 1014.5
20260508001543 12 201 0.0 1.6 0.00 0.00 0.00 74 1014.6
20260508000040 13 356 1.6 3.2 0.00 0.00 0.00 71 1014.7
20260507234538 13 43 3.2 4.8 0.00 0.00 0.00 70 1014.7
20260507233035 14 29 0.0 0.0 0.00 0.00 0.00 68 1014.9
20260507231546 15 20 1.6 3.2 0.00 0.00 0.00 67 1015.0
20260507230032 15 43 0.0 1.6 0.00 0.00 0.00 67 1015.1
20260507224529 15 45 0.0 1.6 0.00 0.00 0.00 67 1015.1
20260507223029 15 54 0.0 0.0 0.00 0.00 0.00 67 1015.0
20260507221531 15 15 0.0 4.8 0.00 0.00 0.00 66 1015.0
20260507220025 15 160 0.0 0.0 0.00 0.00 0.00 66 1015.0
20260507214523 15 160 0.0 0.0 0.00 0.05 0.00 65 1014.9
20260507213028 15 159 0.0 1.6 0.00 0.05 0.00 64 1014.8
20260507211523 16 49 0.0 3.2 0.00 0.05 0.00 62 1015.0
20260507210021 16 59 1.6 3.2 0.00 0.05 0.00 61 1015.0
20260507204521 16 53 0.0 0.0 0.00 0.15 0.00 61 1015.0
20260507203025 16 78 1.6 4.8 0.00 0.15 0.00 62 1015.0
20260507201520 16 74 1.6 8.0 0.00 0.15 0.00 65 1015.0
20260507200028 16 64 1.6 4.8 0.00 0.15 0.00 62 1015.2
20260507194519 16 58 1.6 4.8 0.00 0.43 0.00 61 1015.3
20260507193019 16 137 0.0 0.0 0.00 0.43 0.00 61 1015.2
20260507191518 16 126 0.0 3.2 0.00 0.43 0.00 60 1015.3
20260507190018 16 238 0.0 0.0 0.00 0.43 0.00 59 1015.0
20260507184517 17 330 0.0 4.8 0.00 1.17 0.00 58 1014.9
20260507183030 17 33 0.0 3.2 0.00 1.17 0.00 58 1014.8
20260507181515 18 312 0.0 1.6 0.00 1.17 0.00 54 1014.7
20260507180020 18 297 0.0 6.4 0.00 1.17 0.00 53 1014.6
20260507174518 18 309 3.2 8.0 0.00 1.57 0.00 54 1014.5
20260507173014 19 287 4.8 11.3 0.00 1.57 0.00 54 1014.3
20260507171513 19 307 8.0 12.9 0.00 1.57 0.00 54 1014.2
20260507170016 20 300 8.0 12.9 0.00 1.57 0.00 55 1014.2
20260507164513 20 299 6.4 11.3 0.00 1.57 0.00 54 1014.2
20260507163011 21 307 4.8 9.7 0.00 1.57 0.00 52 1014.3
20260507161516 21 328 1.6 9.7 0.00 1.57 0.00 53 1014.2
20260507160010 20 295 4.8 11.3 0.00 1.57 0.00 52 1014.3
20260507154508 21 304 3.2 9.7 0.00 1.57 0.00 52 1014.2
20260507153011 21 267 4.8 9.7 0.00 1.57 0.00 52 1014.3
20260507151506 20 214 8.0 17.7 0.00 1.57 0.00 53 1014.4
20260507150006 20 323 3.2 11.3 0.00 1.57 0.00 56 1014.3
20260507144504 19 308 1.6 4.8 0.00 1.60 0.00 58 1014.6
20260507143006 20 308 0.0 9.7 0.00 1.60 0.00 55 1014.7
20260507141504 20 324 8.0 14.5 0.00 1.60 0.00 56 1014.8
20260507140002 20 312 1.6 12.9 0.00 1.60 0.00 58 1014.9
20260507134505 20 194 3.2 11.3 0.00 1.70 0.00 54 1015.0
20260507133102 20 110 3.2 9.7 0.00 1.70 0.00 54 1015.1
20260507131622 20 219 6.4 11.3 0.00 1.70 0.00 54 1015.2
20260507130157 19 191 4.8 16.1 0.00 1.70 0.00 55 1015.3
20260507124558 20 165 3.2 9.7 0.00 1.73 0.00 54 1015.4
20260507123105 20 298 3.2 11.3 0.00 1.73 0.00 56 1015.4
20260507121556 20 262 4.8 11.3 0.00 1.73 0.00 53 1015.5
20260507120052 19 314 6.4 14.5 0.00 1.73 0.00 56 1015.6
20260507114550 18 214 1.6 16.1 0.00 1.73 0.00 59 1015.7
20260507113049 18 168 6.4 14.5 0.00 1.73 0.00 54 1015.9
20260507111548 18 158 4.8 11.3 0.00 1.73 0.00 57 1016.0
20260507110100 18 297 4.8 12.9 0.00 1.73 0.00 62 1016.1
20260507104546 18 126 0.0 12.9 0.00 1.73 0.00 61 1016.2
20260507103041 17 255 6.4 16.1 0.00 1.73 0.00 64 1016.2
20260507101543 17 297 6.4 16.1 0.00 1.73 0.00 70 1016.4
20260507100040 16 63 0.0 16.1 0.00 1.73 0.00 69 1016.4
20260507094538 17 314 1.6 8.0 0.00 1.73 0.00 73 1016.4
20260507093036 16 6 6.4 16.1 0.00 1.73 0.00 74 1016.4
20260507091539 16 297 4.8 12.9 0.00 1.73 0.00 73 1016.4
20260507090039 16 342 8.0 11.3 0.00 1.73 0.00 76 1016.3
20260507084538 16 293 1.6 8.0 0.00 1.73 0.00 74 1016.4
20260507083037 16 335 6.4 11.3 0.00 1.73 0.00 75 1016.3
20260507081530 16 260 3.2 6.4 0.00 1.73 0.00 72 1016.2
20260507080029 15 207 0.0 6.4 0.00 1.73 0.00 78 1016.1
20260507074538 15 4 3.2 6.4 0.00 1.73 0.00 79 1016.1
20260507073024 14 318 4.8 8.0 0.00 1.73 0.00 81 1016.1
20260507071523 14 352 1.6 4.8 0.00 1.73 0.00 81 1016.0
20260507070022 14 324 1.6 4.8 0.00 1.73 0.00 76 1015.7
20260507064521 15 129 0.0 3.2 0.00 1.73 0.00 78 1015.7
20260507063016 14 311 0.0 1.6 0.00 1.73 0.00 83 1015.7
20260507061516 14 158 0.0 0.0 0.00 1.73 0.00 79 1015.7
20260507060018 13 193 0.0 4.8 0.00 1.73 0.00 82 1015.5
20260507054513 13 208 0.0 1.6 0.00 1.73 0.00 78 1015.4
20260507053011 14 162 0.0 0.0 0.00 1.73 0.00 71 1015.2
20260507051508 13 161 0.0 0.0 0.00 1.73 0.00 74 1015.1
20260507050004 12 167 0.0 0.0 0.00 1.73 0.00 78 1015.1
20260507044602 -17 0.0 0.0 0.00 1.73 0.00 1014.8
20260507043100 -17 0.0 0.0 0.00 1.73 0.00 1014.7
20260507041551 -17 0.0 0.0 0.00 1.73 0.00 1014.6
20260507040047 -17 0.0 0.0 0.00 1.73 0.00 1014.6
20260507034554 -17 0.0 0.0 0.00 1.73 0.00 1014.5
20260507033043 -17 0.0 0.0 0.00 1.73 0.00 1014.5
20260507031535 -17 0.0 0.0 0.00 1.73 0.00 1014.5
20260507030030 -17 0.0 0.0 0.00 1.73 0.00 1014.6
20260507024543 -17 0.0 0.0 0.00 1.73 0.00 1014.7
20260507023020 -17 0.0 0.0 0.00 1.73 0.00 1014.5
20260507021517 -17 0.0 0.0 0.00 1.73 0.00 1014.6
20260507020013 -17 0.0 0.0 0.00 1.73 0.00 1014.4
20260507014510 -17 0.0 0.0 0.00 1.73 0.00 1014.4